Location: Piolenc
(44.1794°N, 4.7641°E)
Time: 04:45:48
(UTC+00:00)

USA 307 - Pass Details

Date: 27 January 2021
Orbit: 565 x 580 km, 54.0° (Epoch: 26 February)

Event Time Altitude Azimuth Distance (km) Brightness Sun altitude
Exits shadow 04:43:54 64° 59° (ENE) 628 3.2 -25.1°
Drops below altitude 10° 04:47:32 10° 54° (NE) 1,864 6.2 -24.4°
Sets 04:49:47 0° 55° (NE) 2,764 7.2 -24.0°
